CW1575 Weather Reports


Display with metric or nautical units.
time (UTC)temp
F
wind
direction
speed
MPH
gust
MPH
rain 1hr
in
rain 24hr
in
rain mn
in
humidity
%
barometer
mb
20160430214001 38 344 7.0 14.0 0.00 0.30 0.06 86 1018.1
20160430213503 38 354 6.0 13.0 0.00 0.31 0.06 87 1018.0
20160430180502 35 327 4.0 12.0 0.00 0.31 0.06 92 1016.6
20160430180002 35 333 5.0 9.0 0.00 0.31 0.06 92 1016.6
20160430175501 35 326 6.0 15.0 0.00 0.31 0.06 92 1016.6
20160430175001 35 331 6.0 15.0 0.00 0.32 0.06 92 1016.6
20160430174501 34 351 4.0 13.0 0.01 0.32 0.06 92 1016.5
20160430174001 34 346 7.0 15.0 0.01 0.33 0.06 92 1016.5
20160430173501 34 338 6.0 12.0 0.01 0.33 0.06 92 1016.6
20160430173002 34 339 9.0 17.0 0.01 0.33 0.06 92 1016.3
20160430172501 34 344 6.0 20.0 0.01 0.34 0.06 93 1016.3
20160430172001 34 13 7.0 14.0 0.01 0.35 0.06 92 1016.3
20160430171502 34 3 7.0 20.0 0.01 0.35 0.06 92 1016.3
20160430171001 34 0 9.0 20.0 0.01 0.35 0.06 92 1016.0
20160430170501 34 341 6.0 12.0 0.01 0.36 0.06 92 1015.7
20160430170001 34 10 4.0 12.0 0.01 0.36 0.06 92 1015.8
20160430165501 34 348 6.0 13.0 0.02 0.36 0.06 92 1015.9
20160430165002 34 12 5.0 9.0 0.02 0.36 0.06 92 1015.6
20160430164501 34 346 7.0 14.0 0.01 0.35 0.05 92 1015.6
20160430164001 34 353 6.0 16.0 0.01 0.35 0.05 92 1015.6
20160430163502 34 356 6.0 13.0 0.01 0.35 0.05 92 1015.5
20160430163001 34 350 5.0 14.0 0.01 0.36 0.05 93 1015.5
20160430162501 34 14 5.0 9.0 0.01 0.36 0.05 92 1015.2
20160430162001 33 10 2.0 14.0 0.01 0.36 0.05 92 1015.1
20160430161501 33 344 7.0 17.0 0.01 0.36 0.05 92 1015.0
20160430161001 33 348 6.0 12.0 0.01 0.37 0.05 92 1015.0
20160430160501 33 314 5.0 9.0 0.01 0.37 0.05 92 1015.0
20160430160001 33 349 3.0 8.0 0.01 0.37 0.05 92 1015.0
20160430155501 33 5 5.0 10.0 0.00 0.36 0.04 92 1015.0
20160430155002 33 337 5.0 13.0 0.00 0.36 0.04 92 1015.0
20160430154501 33 0 5.0 9.0 0.00 0.37 0.04 92 1015.0
20160430154001 33 345 5.0 9.0 0.00 0.37 0.04 92 1014.8
20160430153501 33 333 9.0 16.0 0.00 0.37 0.04 92 1014.8
20160430153002 33 11 6.0 12.0 0.00 0.38 0.04 92 1014.7
20160430152501 33 5 3.0 10.0 0.00 0.39 0.04 92 1014.7
20160430152001 33 336 2.0 6.0 0.00 0.39 0.04 93 1014.7
20160430151501 33 11 5.0 8.0 0.00 0.39 0.04 93 1014.8
20160430151001 33 346 3.0 6.0 0.00 0.40 0.04 93 1014.7
20160430150501 33 313 3.0 9.0 0.00 0.40 0.04 93 1014.6
20160430150001 33 339 3.0 6.0 0.00 0.40 0.04 94 1014.5
20160430145501 33 329 4.0 8.0 0.00 0.40 0.04 94 1014.3
20160430145001 33 316 4.0 9.0 0.00 0.40 0.04 94 1014.3
20160430144501 33 359 2.0 8.0 0.00 0.40 0.04 94 1014.3
20160430144001 32 7 4.0 8.0 0.00 0.40 0.04 94 1014.2
20160430143501 32 3 6.0 12.0 0.00 0.40 0.04 94 1014.2
20160430143001 32 19 4.0 9.0 0.00 0.40 0.04 95 1014.1
20160430142501 32 356 5.0 10.0 0.00 0.40 0.04 95 1013.9
20160430142001 32 6 6.0 15.0 0.00 0.40 0.04 95 1013.9
20160430141501 32 16 2.0 10.0 0.00 0.40 0.04 95 1013.8
20160430141001 32 22 3.0 12.0 0.00 0.40 0.04 95 1013.8
20160430140502 32 344 1.0 6.0 0.00 0.41 0.04 95 1013.7
20160430140001 32 355 2.0 6.0 0.00 0.41 0.04 95 1013.7
20160430135501 32 314 2.0 8.0 0.00 0.41 0.04 95 1013.5
20160430135001 32 328 3.0 8.0 0.00 0.41 0.04 95 1013.4
20160430134502 32 333 2.0 8.0 0.00 0.41 0.04 95 1013.4
20160430134001 32 339 1.0 5.0 0.00 0.41 0.04 95 1013.4
20160430133502 32 329 3.0 9.0 0.00 0.41 0.04 95 1013.4
20160430133001 32 344 5.0 10.0 0.00 0.42 0.04 95 1013.4
20160430132501 32 340 2.0 8.0 0.00 0.42 0.04 95 1013.3
20160430132001 31 345 3.0 8.0 0.00 0.42 0.04 95 1013.3
20160430131501 31 347 2.0 8.0 0.00 0.42 0.04 95 1013.3
20160430131001 31 16 2.0 7.0 0.00 0.43 0.04 95 1013.3
20160430130502 31 355 2.0 9.0 0.00 0.43 0.04 95 1013.4
20160430130001 31 323 2.0 6.0 0.00 0.43 0.04 95 1013.4
20160430125501 31 315 2.0 7.0 0.00 0.43 0.04 95 1013.3
20160430125001 31 4 3.0 8.0 0.00 0.43 0.04 95 1013.3
20160430124501 31 335 2.0 10.0 0.00 0.43 0.04 95 1013.2
20160430124002 31 355 2.0 9.0 0.00 0.43 0.04 95 1013.2
20160430123501 31 338 3.0 9.0 0.00 0.43 0.04 95 1013.0
20160430123001 31 328 3.0 8.0 0.00 0.43 0.04 95 1013.1
20160430122502 31 345 3.0 9.0 0.00 0.43 0.04 95 1013.0
20160430122002 31 342 3.0 6.0 0.00 0.43 0.04 95 1013.1
20160430121501 31 5 3.0 8.0 0.00 0.43 0.04 95 1013.0
20160430121001 31 348 4.0 13.0 0.00 0.43 0.04 95 1013.0
20160430120501 31 344 3.0 6.0 0.00 0.43 0.04 96 1012.9
20160430120001 31 332 1.0 3.0 0.00 0.43 0.04 96 1012.8
20160430115501 31 332 1.0 2.0 0.00 0.43 0.04 96 1012.6
20160430115002 31 332 3.0 8.0 0.00 0.43 0.04 96 1012.7
20160430114501 31 311 1.0 3.0 0.00 0.43 0.04 96 1012.7
20160430114001 31 327 1.0 3.0 0.00 0.43 0.04 96 1012.7
20160430113501 31 303 1.0 3.0 0.00 0.43 0.04 96 1012.7
20160430113002 31 335 2.0 3.0 0.00 0.43 0.04 96 1012.7
20160430112501 31 316 3.0 5.0 0.00 0.43 0.04 95 1012.7
20160430112001 31 334 2.0 8.0 0.00 0.43 0.04 95 1012.8
20160430111502 31 18 2.0 5.0 0.00 0.43 0.04 95 1012.7
20160430111001 31 332 2.0 5.0 0.00 0.43 0.04 95 1012.8
20160430110501 31 356 2.0 3.0 0.00 0.43 0.04 95 1012.8
20160430110001 31 5 2.0 8.0 0.00 0.43 0.04 95 1012.8
20160430105502 31 338 2.0 6.0 0.00 0.43 0.04 95 1012.8
20160430105001 31 3 2.0 5.0 0.00 0.43 0.04 95 1012.7
20160430104501 31 339 1.0 3.0 0.00 0.43 0.04 95 1012.7
20160430104002 31 339 2.0 5.0 0.00 0.43 0.04 95 1012.6
20160430103501 31 338 1.0 2.0 0.00 0.43 0.04 95 1012.7
20160430103002 32 338 2.0 3.0 0.00 0.43 0.04 95 1012.6
20160430102502 32 335 1.0 3.0 0.00 0.43 0.04 95 1012.5
20160430102001 32 350 1.0 3.0 0.00 0.43 0.04 95 1012.6
20160430101502 32 11 0.0 2.0 0.00 0.43 0.04 95 1012.7
20160430101001 32 11 2.0 3.0 0.00 0.43 0.04 95 1012.5
20160430100502 31 355 1.0 3.0 0.00 0.43 0.04 95 1012.5
20160430100002 32 355 1.0 3.0 0.00 0.43 0.04 95 1012.5
20160430095501 32 326 1.0 3.0 0.00 0.43 0.04 95 1012.4